Retour au catalogue

IUS R/B(2)

LostGEO
NORAD 21641·ROCKET BODY·🇺🇸 United States

Lancé Aug 2, 1991 depuis Cape Canaveral Space Force Station

Loading…

TLE

VieillissantSource: Space-Track

Époque: Jul 21, 2026, 04:21 UTC

1 21641U 91054D   26202.18137641 -.00000264  00000-0  00000+0 0  9998
2 21641  13.7105 332.6764 0035977 348.5339   6.2354  1.00329673 47709

Suivez IUS R/B(2) en temps réel avec AllMySat

Download on the App Store